| time (UTC) | temp F | wind direction | speed knots | gust knots | rain 1hr in | rain 24hr in | rain mn in | humidity % | barometer mb |
| 20260505011517 | 64 | 0.0 | 0.0 | 0.00 | 0.00 | 0.00 | 36 | 1006.9 | |
| 20260505010536 | 65 | 0.0 | 0.0 | 0.00 | 0.00 | 0.00 | 34 | 1006.5 | |
| 20260505005516 | 66 | 0.0 | 0.0 | 0.00 | 0.00 | 0.00 | 34 | 1006.1 | |
| 20260505004516 | 67 | 0.0 | 0.0 | 0.00 | 0.00 | 0.00 | 33 | 1006.2 | |
| 20260505003516 | 68 | 0.0 | 0.0 | 0.00 | 0.00 | 0.00 | 32 | 1005.9 | |
| 20260505002516 | 69 | 0.0 | 0.0 | 0.00 | 0.00 | 0.00 | 32 | 1005.8 | |
| 20260505001516 | 70 | 0.0 | 0.0 | 0.00 | 0.00 | 0.00 | 32 | 1005.6 | |
| 20260505000516 | 70 | 0.0 | 0.0 | 0.00 | 0.00 | 0.00 | 31 | 1005.7 | |
| 20260504235516 | 72 | 0.0 | 0.0 | 0.00 | 0.00 | 0.00 | 31 | 1005.7 | |
| 20260504234516 | 73 | 0.0 | 0.0 | 0.00 | 0.00 | 0.00 | 30 | 1005.7 | |
| 20260504233516 | 73 | 0.0 | 0.0 | 0.00 | 0.00 | 0.00 | 30 | 1005.5 | |
| 20260504232516 | 74 | 0.0 | 0.0 | 0.00 | 0.00 | 0.00 | 29 | 1005.3 | |
| 20260504231536 | 75 | 0.0 | 0.0 | 0.00 | 0.00 | 0.00 | 28 | 1005.2 | |
| 20260504230516 | 76 | 0.0 | 0.0 | 0.00 | 0.00 | 0.00 | 27 | 1005.1 | |
| 20260504225516 | 77 | 0.0 | 0.0 | 0.00 | 0.00 | 0.00 | 27 | 1004.8 | |
| 20260504224516 | 78 | 0.0 | 0.0 | 0.00 | 0.00 | 0.00 | 27 | 1004.7 | |
| 20260504222536 | 80 | 0.0 | 0.0 | 0.00 | 0.00 | 0.00 | 28 | 1004.3 | |
| 20260504221516 | 80 | 0.0 | 0.0 | 0.00 | 0.00 | 0.00 | 28 | 1004.0 | |
| 20260504220516 | 80 | 0.0 | 0.0 | 0.00 | 0.00 | 0.00 | 29 | 1004.0 | |
| 20260504215516 | 80 | 0.0 | 0.0 | 0.00 | 0.00 | 0.00 | 30 | 1003.9 | |
| 20260504214516 | 80 | 0.0 | 0.0 | 0.00 | 0.00 | 0.00 | 30 | 1003.9 | |
| 20260504213536 | 80 | 0.0 | 0.0 | 0.00 | 0.00 | 0.00 | 29 | 1003.9 | |
| 20260504212516 | 81 | 0.0 | 0.0 | 0.00 | 0.00 | 0.00 | 31 | 1003.8 | |
| 20260504211516 | 80 | 0.0 | 0.0 | 0.00 | 0.00 | 0.00 | 31 | 1003.8 | |
| 20260504210516 | 81 | 0.0 | 0.0 | 0.00 | 0.00 | 0.00 | 32 | 1003.8 | |
| 20260504205516 | 82 | 0.0 | 0.0 | 0.00 | 0.00 | 0.00 | 32 | 1003.8 | |
| 20260504204516 | 81 | 0.0 | 0.0 | 0.00 | 0.00 | 0.00 | 33 | 1003.7 | |
| 20260504203516 | 82 | 0.0 | 0.0 | 0.00 | 0.00 | 0.00 | 32 | 1003.7 | |
| 20260504202516 | 82 | 0.0 | 0.0 | 0.00 | 0.00 | 0.00 | 31 | 1003.8 | |
| 20260504201516 | 82 | 0.0 | 0.0 | 0.00 | 0.00 | 0.00 | 31 | 1003.8 | |
| 20260504200516 | 83 | 0.0 | 0.0 | 0.00 | 0.00 | 0.00 | 30 | 1003.7 | |
| 20260504195516 | 82 | 0.0 | 0.0 | 0.00 | 0.00 | 0.00 | 31 | 1003.7 | |
| 20260504194516 | 83 | 0.0 | 0.0 | 0.00 | 0.00 | 0.00 | 29 | 1003.7 | |
| 20260504193516 | 84 | 0.0 | 0.0 | 0.00 | 0.00 | 0.00 | 29 | 1003.5 | |
| 20260504192516 | 84 | 0.0 | 0.0 | 0.00 | 0.00 | 0.00 | 27 | 1003.6 | |
| 20260504191516 | 84 | 0.0 | 0.0 | 0.00 | 0.00 | 0.00 | 28 | 1003.3 | |
| 20260504190515 | 84 | 0.0 | 0.0 | 0.00 | 0.00 | 0.00 | 27 | 1003.4 | |
| 20260504185516 | 83 | 0.0 | 0.0 | 0.00 | 0.00 | 0.00 | 30 | 1003.3 | |
| 20260504184536 | 83 | 0.0 | 0.0 | 0.00 | 0.00 | 0.00 | 28 | 1003.3 | |
| 20260504183515 | 83 | 0.0 | 0.0 | 0.00 | 0.00 | 0.00 | 28 | 1003.4 | |
| 20260504182536 | 82 | 0.0 | 0.0 | 0.00 | 0.00 | 0.00 | 27 | 1003.6 | |
| 20260504181515 | 82 | 0.0 | 0.0 | 0.00 | 0.00 | 0.00 | 28 | 1003.6 | |
| 20260504180516 | 82 | 0.0 | 0.0 | 0.00 | 0.00 | 0.00 | 28 | 1003.7 | |
| 20260504175516 | 82 | 0.0 | 0.0 | 0.00 | 0.00 | 0.00 | 30 | 1003.8 | |
| 20260504174516 | 81 | 0.0 | 0.0 | 0.00 | 0.00 | 0.00 | 32 | 1003.8 | |
| 20260504173516 | 80 | 0.0 | 0.0 | 0.00 | 0.00 | 0.00 | 35 | 1004.0 | |
| 20260504172516 | 79 | 0.0 | 0.0 | 0.00 | 0.00 | 0.00 | 36 | 1003.9 | |
| 20260504171535 | 79 | 0.0 | 0.0 | 0.00 | 0.00 | 0.00 | 35 | 1004.0 | |
| 20260504170516 | 78 | 0.0 | 0.0 | 0.00 | 0.00 | 0.00 | 38 | 1004.2 | |
| 20260504150535 | 69 | 0.0 | 0.0 | 0.00 | 0.00 | 0.00 | 48 | 1004.1 | |
| 20260504140517 | 64 | 0.0 | 0.0 | 0.00 | 0.00 | 0.00 | 55 | 1004.4 | |
| 20260504130537 | 55 | 0.0 | 0.0 | 0.00 | 0.00 | 0.00 | 73 | 1003.8 | |
| 20260504110517 | 52 | 0.0 | 0.0 | 0.00 | 0.00 | 0.00 | 73 | 1003.5 | |
| 20260504100517 | 55 | 0.0 | 0.0 | 0.00 | 0.00 | 0.00 | 61 | 1004.0 | |
| 20260504081517 | 58 | 0.0 | 0.0 | 0.00 | 0.00 | 0.00 | 54 | 1005.6 | |
| 20260504080516 | 58 | 0.0 | 0.0 | 0.00 | 0.00 | 0.00 | 54 | 1005.8 | |
| 20260504050516 | 62 | 0.0 | 0.0 | 0.00 | 0.00 | 0.00 | 49 | 1008.4 | |
| 20260504045517 | 62 | 0.0 | 0.0 | 0.00 | 0.00 | 0.00 | 49 | 1008.4 | |
| 20260504044517 | 62 | 0.0 | 0.0 | 0.00 | 0.00 | 0.00 | 49 | 1008.4 | |
| 20260504043517 | 62 | 0.0 | 0.0 | 0.00 | 0.00 | 0.00 | 48 | 1008.6 | |
| 20260504042557 | 63 | 0.0 | 0.0 | 0.00 | 0.00 | 0.00 | 47 | 1008.7 | |
| 20260504041517 | 63 | 0.0 | 0.0 | 0.00 | 0.00 | 0.00 | 46 | 1008.8 | |
| 20260504040537 | 63 | 0.0 | 0.0 | 0.00 | 0.00 | 0.00 | 46 | 1008.8 | |
| 20260504035537 | 64 | 0.0 | 0.0 | 0.00 | 0.00 | 0.00 | 46 | 1008.9 | |
| 20260504034517 | 65 | 0.0 | 0.0 | 0.00 | 0.00 | 0.00 | 43 | 1009.0 | |
| 20260504033517 | 65 | 0.0 | 0.0 | 0.00 | 0.00 | 0.00 | 43 | 1009.0 | |
| 20260504032516 | 66 | 0.0 | 0.0 | 0.00 | 0.00 | 0.00 | 43 | 1009.1 | |
| 20260504031537 | 68 | 0.0 | 0.0 | 0.00 | 0.00 | 0.00 | 40 | 1009.2 | |
| 20260504030516 | 68 | 0.0 | 0.0 | 0.00 | 0.00 | 0.00 | 37 | 1009.2 | |
| 20260504025517 | 69 | 0.0 | 0.0 | 0.00 | 0.00 | 0.00 | 37 | 1009.3 | |
| 20260504024516 | 69 | 0.0 | 0.0 | 0.00 | 0.00 | 0.00 | 37 | 1009.4 | |
| 20260504023537 | 69 | 0.0 | 0.0 | 0.00 | 0.00 | 0.00 | 37 | 1009.4 | |
| 20260504022516 | 69 | 0.0 | 0.0 | 0.00 | 0.00 | 0.00 | 38 | 1009.4 | |
| 20260504021537 | 69 | 0.0 | 0.0 | 0.00 | 0.00 | 0.00 | 38 | 1009.4 | |
| 20260504020517 | 69 | 0.0 | 0.0 | 0.00 | 0.00 | 0.00 | 37 | 1009.5 | |
| 20260504015516 | 69 | 0.0 | 0.0 | 0.00 | 0.00 | 0.00 | 37 | 1009.5 | |
| 20260504014517 | 69 | 0.0 | 0.0 | 0.00 | 0.00 | 0.00 | 37 | 1009.5 | |
| 20260504013516 | 70 | 0.0 | 0.0 | 0.00 | 0.00 | 0.00 | 37 | 1009.6 | |
| 20260504012537 | 70 | 0.0 | 0.0 | 0.00 | 0.00 | 0.00 | 37 | 1009.5 |